#timestamp,LO_Frequency,Hit,StdDev 
1614574815.3,286047002.8,Y
1614574835.2,286047002.1,P
1614574855.9,286047000.4,N
1614574875.7,286047000.4,N
1614574895.6,286047004.4,Y
1614574915.4,286047000.5,P
1614574935.3,286046999.3,P
1614574955.1,286046999.4,N
1614574956.0,286046999.4,N
1614574975.8,286046999.0,N
1614574995.7,286046999.5,N
1614575015.5,286047000.9,N
1614575035.3,286047000.6,N
1614575055.2,286047003.3,Y
1614575075.0,286047002.4,P
1614575075.9,286047002.4,N
1614575095.8,286047000.4,N
1614575115.6,286046999.0,N
1614575135.4,286047000.2,N
1614575155.3,286047002.1,N
1614575175.1,286047003.3,N
1614575195.9,286047002.5,N
1614575215.7,286047001.1,N
1614575235.5,286047002.2,N
1614575255.4,286047003.4,N
1614575275.2,286047001.8,N
1614575295.0,286047002.0,N
1614575295.9,286047002.0,N
1614575315.8,286046999.1,N
1614575335.6,286047002.3,N
1614575355.5,286047000.6,N
1614575375.3,286047000.6,N
1614575395.1,286046996.5,N
1614575415.9,286047001.0,N
1614575435.7,286047000.3,N
1614575455.5,286046999.5,N
1614575475.4,286046999.0,N
1614575495.2,286047000.2,N
1614575515.0,286047000.3,N
1614575516.0,286047000.3,N
1614575535.8,286047004.2,N
1614575555.6,286047001.8,N
1614575575.5,286047002.8,N
1614575595.3,286047003.8,N
1614575615.1,286047004.4,N
1614575635.9,286047002.2,N
1614575655.7,286046998.7,N
1614575675.5,286047002.0,N
1614575695.4,286047001.3,N
1614575715.2,286047000.1,N
1614575735.1,286047000.5,N
1614575736.0,286047000.5,N
1614575755.8,286046998.4,N
1614575775.6,286047001.9,N
1614575795.5,286047002.2,N
1614575815.3,286047003.7,N
1614575835.1,286047001.8,N
1614575855.9,286047001.6,N
1614575875.7,286047002.2,N
1614575895.6,286047003.2,N
1614575915.4,286047002.5,N
1614575935.2,286047000.9,N
1614575955.1,286047002.2,N
1614575956.0,286047002.2,N
1614575975.8,286046999.8,N
1614575995.7,286046998.9,N
1614576015.5,286046998.0,N
1614576035.3,286047000.4,N
1614576055.2,286047005.9,Y
1614576075.0,286046999.7,P
1614576075.9,286046999.7,N
1614576095.7,286046999.3,N
1614576115.6,286047000.4,N
1614576135.4,286047002.5,Y
1614576155.3,286047001.6,P
1614576175.1,286047003.1,P
1614576195.8,286047003.1,N
1614576215.7,286047005.8,Y
1614576235.5,286047000.1,P
1614576255.4,286047001.7,N
1614576275.2,286047003.2,P
1614576295.0,286047003.7,Y
1614576295.9,286047003.7,P
1614576315.8,286047005.1,P
1614576335.6,286047006.1,P
1614576355.4,286047007.6,Y
1614576375.3,286047001.3,P
1614576395.1,286046998.3,N
1614576415.9,286046999.6,N
1614576435.7,286046999.9,N
1614576455.5,286046996.9,N
1614576475.4,286047000.6,N
1614576495.2,286046999.3,N
1614576515.0,286046999.2,N
1614576515.9,286046999.2,N
1614576535.8,286046995.7,N
1614576555.6,286046997.9,N
1614576575.5,286046997.9,N
1614576595.3,286046997.1,N
1614576615.1,286046995.5,N
1614576635.9,286046995.5,N
1614576655.7,286046996.5,N
1614576675.5,286047000.9,N
1614576695.4,286047001.0,N
1614576715.2,286046998.7,N
1614576735.1,286047000.2,N
1614576736.0,286047000.2,N
1614576755.8,286047001.4,N
1614576775.6,286047002.8,N
1614576795.5,286047004.4,N
1614576815.3,286047000.1,N
1614576835.1,286047001.4,N
1614576855.9,286047003.3,N
1614576875.7,286047003.6,N
1614576895.6,286047005.5,N
1614576915.4,286047002.6,N
1614576935.2,286046999.4,N
1614576955.1,286047002.4,N
1614576956.0,286047002.4,N
1614576975.8,286046998.3,N
1614576995.6,286047000.6,N
1614577015.5,286047001.0,N
1614577035.3,286047001.5,N
1614577055.2,286047002.3,N
1614577075.9,286047005.9,N
1614577095.7,286047001.6,N
1614577115.6,286047003.5,N
1614577135.4,286047004.0,N
1614577155.2,286046999.7,N
1614577175.1,286046998.5,N
1614577176.0,286046998.5,N
1614577195.8,286046998.1,N
1614577215.7,286047002.8,N
1614577235.5,286047000.8,N
1614577255.3,286047002.7,N
1614577275.2,286047000.0,N
1614577295.9,286047001.1,N
1614577315.7,286046999.1,N
1614577335.6,286046999.3,N
1614577355.4,286046999.5,N
1614577375.3,286046998.7,N
1614577395.1,286046998.8,N
1614577396.0,286046998.8,N
1614577415.8,286046998.0,N
1614577435.7,286046995.6,N
1614577455.5,286046995.6,N
1614577475.3,286046995.7,N
1614577495.2,286046995.2,N
1614577515.0,286046993.5,N
1614577515.9,286046993.5,N
1614577535.8,286046995.2,N
1614577555.6,286046992.6,N
1614577575.4,286046992.1,N
1614577595.3,286046992.0,N
1614577615.1,286046994.2,N
1614577616.0,286046994.2,N
1614577635.8,286046993.4,N
1614577655.7,286046992.1,N
1614577675.5,286046991.8,N
1614577695.4,286046992.1,N
1614577715.2,286046991.8,N
1614577735.0,286046993.2,N
1614577735.9,286046993.2,N
1614577755.8,286046986.3,Y
1614577775.6,286046995.8,P
1614577795.4,286046995.7,P
1614577815.3,286046998.9,P
1614577835.1,286047001.1,N
1614577855.9,286047000.8,N
1614577875.7,286046999.6,N
1614577895.5,286046997.0,N
1614577915.4,286047001.2,N
1614577935.2,286046999.3,N
1614577955.0,286046999.2,N
1614577955.9,286046999.2,N
1614577975.8,286046993.5,Y
1614577995.6,286046995.1,P
1614578015.5,286046995.9,N
1614578035.3,286046999.6,N
1614578055.1,286046996.9,N
1614578075.9,286046995.0,Y
1614578095.7,286046999.9,P
1614578115.5,286046999.9,N
1614578135.4,286046999.0,N
1614578155.2,286047001.2,N
1614578175.1,286046998.4,N
1614578176.0,286046998.4,N
1614578195.8,286046998.8,N
1614578215.6,286046999.0,N
1614578235.5,286046998.4,N
1614578255.3,286046999.1,N
1614578275.1,286046999.0,N
1614578295.9,286046997.3,N
1614578315.7,286046995.1,Y
1614578335.6,286046996.5,P
1614578355.4,286046997.6,N
1614578375.2,286046996.8,P
1614578395.1,286047001.2,N
1614578396.0,286047001.2,N
